Location: Baia de Cri?
(46.1667°N, 22.7167°E)
Time: 08:47:50
(UTC+00:00)

Cosmos 2082 Rocket - Pass Details

Date: 15 January 2026
Orbit: 832 x 853 km, 71.0° (Epoch: 10 February)

Event Time Altitude Azimuth Distance (km) Brightness Sun altitude
Exits shadow 03:12:45 13° 2° (N) 2,236 4.4 -29.7°
Maximum altitude 03:16:18 23° 46° (NE) 1,737 4.2 -29.1°
Drops below altitude 10° 03:20:43 10° 98° (E) 2,472 5.6 -28.4°
Sets 03:23:42 0° 113° (ESE) 3,407 6.4 -27.8°
